Location: La Fredeussais
(48.1780°N, 1.3980°W)
Time: 04:06:28
(UTC+00:00)

Cosmos 44 - Pass Details

Date: 09 May 2021
Orbit: 571 x 791 km, 65.1° (Epoch: 13 June)

Event Time Altitude Azimuth Distance (km) Brightness Sun altitude
Rises 22:07:52 0° 323° (NW) 3,297 8.4 -19.4°
Reaches altitude 10° 22:10:26 10° 330° (NNW) 2,364 7.3 -19.6°
Maximum altitude 22:15:40 45° 43° (NE) 1,063 4.3 -20.1°
Enters shadow 22:18:22 25° 101° (E) 1,513 4.7 -20.3°
